SCP
0 0 0 0 0 0 0 0 0 0 0 0 0 0 0 0 0 0 0 1 1 1 1 1 1 1 1 1 2 2 2 2 2 2 1 1 1 1 1 1 1 1 1 1
0 0 0 0 0 0 0 0 0 0 0 0 0 0 0 0 0 0 0 1 1 1 1 1 1 1 1 2 2 2 2 2 2 2 1 1 1 1 1 1 1 1 1 1
0 0 0 0 0 0 0 0 0 0 0 0 0 0 0 0 0 0 0 0 1 1 1 1 1 1 1 1 2 2 2 2 2 2 1 1 1 1 1 1 1 1 1 1
0 0 0 0 0 0 0 0 0 0 0 0 0 0 0 0 0 0 0 0 1 1 1 1 1 1 1 1 2 2 2 2 2 2 1 1 1 1 1 1 1 1 1 1
0 0 0 0 0 0 0 0 0 0 0 0 0 0 0 0 0 0 0 0 1 1 1 1 1 1 1 1 2 2 2 2 2 2 2 1 1 1 2 2 1 1 1 1
0 0 0 0 0 0 0 0 0 0 0 0 0 0 0 0 0 0 0 0 1 1 1 1 1 1 1 1 1 2 2 2 2 2 2 2 2 2 2 2 2 1 1 1
0 0 0 0 0 0 0 0 0 0 0 0 0 0 0 0 0 0 0 1 1 1 1 1 1 1 1 1 1 2 2 2 2 2 2 2 2 2 2 2 2 1 1 1
0 0 0 0 0 0 0 0 0 0 0 0 0 0 0 0 0 0 0 1 1 1 1 1 1 1 1 1 2 2 2 2 2 2 2 2 2 2 2 2 2 1 1 1
0 0 0 0 0 0 0 0 0 0 0 0 0 0 0 0 0 0 0 1 1 1 2 2 2 1 1 2 2 2 2 3 2 2 2 2 2 2 2 2 2 1 1 1
0 0 0 0 0 0 0 0 0 0 0 0 0 0 0 0 0 0 1 1 1 2 2 2 2 1 1 2 2 2 2 3 2 2 2 1 2 2 2 2 1 1 1 1
0 0 0 0 0 0 0 0 0 0 0 0 0 0 0 0 0 1 1 1 1 2 2 2 1 1 1 2 2 2 3 3 2 2 2 2 2 2 1 1 1 1 1 1
0 0 0 0 0 0 0 0 0 0 0 0 0 0 0 1 1 1 1 1 1 1 1 1 1 1 1 2 2 2 2 2 2 2 2 2 2 1 1 1 1 1 1 1
0 0 0 0 0 0 0 0 0 0 0 0 0 0 0 1 1 1 1 1 1 1 1 1 1 1 1 1 1 2 2 2 2 2 2 2 2 1 1 1 1 1 1 1
0 0 0 0 0 0 0 0 0 0 0 0 0 0 0 0 1 1 1 1 1 1 1 1 1 1 1 1 1 1 2 2 2 2 1 1 1 1 1 1 1 1 1 1
0 0 0 0 0 0 0 0 0 0 0 0 0 0 0 0 0 0 1 1 1 1 1 1 1 1 1 1 1 1 1 1 1 1 1 1 1 1 1 1 1 1 1 1
0 0 0 0 0 0 0 0 0 0 0 0 0 0 0 0 0 0 0 1 1 1 1 1 1 1 1 1 1 1 1 1 1 1 1 1 1 1 1 1 1 1 1 1
0 0 0 0 0 0 0 0 0 0 0 0 0 0 0 0 0 0 1 1 1 1 1 1 1 1 1 1 1 1 1 1 1 1 1 1 1 1 1 1 1 1 1 1
0 0 0 0 0 0 0 0 0 0 0 0 0 0 0 0 0 0 1 1 1 1 1 1 1 1 1 1 1 1 1 1 1 1 1 1 1 1 1 1 1 1 1 1
0 0 0 0 0 0 0 0 0 0 0 0 0 0 0 0 0 0 1 1 1 1 1 1 1 1 1 1 1 1 1 1 1 1 1 1 1 1 1 1 1 1 1 1
0 0 0 0 0 0 0 0 0 0 0 0 0 0 0 0 0 0 1 1 1 1 1 1 1 1 1 1 1 1 1 1 1 1 1 1 1 1 1 1 1 1 1 1
0 0 0 0 0 0 0 0 0 0 0 0 0 0 0 0 0 0 0 0 0 1 1 1 1 1 1 1 1 1 1 1 1 1 1 1 1 1 1 1 1 1 1 1
0 0 0 0 0 0 0 0 0 0 0 0 0 0 0 0 0 0 0 0 0 0 0 1 1 1 1 1 1 1 1 1 1 1 1 1 1 1 1 1 1 1 1 1
0 0 0 0 0 0 0 0 0 0 0 0 0 0 0 0 0 0 0 0 0 0 0 1 1 1 1 1 1 1 1 1 1 1 1 1 1 1 0 1 1 1 1 1
0 0 0 0 0 0 0 0 0 0 0 0 0 0 0 0 0 0 0 0 0 0 0 1 1 1 1 1 1 1 1 1 1 1 1 1 0 0 0 0 1 1 1 1
0 0 0 0 0 0 0 0 0 0 0 0 0 0 0 0 0 0 0 1 1 0 0 1 1 1 1 1 1 1 1 1 1 1 1 0 0 0 0 0 0 0 0 0
0 0 0 0 0 0 0 0 0 0 0 0 0 0 0 0 0 0 0 0 1 1 1 1 1 1 1 1 1 1 1 1 1 1 0 0 0 0 0 0 0 0 0 0
Wind_Speed
11 12 11 10 11 12 13 13 12 10 6 6 8 8 6 6 6 7 7 8 8 8 8 7 7 7 8 7 6 5 5 4 4 3 3 3 2 2 2 2 4 3 2 2
13 15 12 10 11 12 14 14 14 11 6 6 8 8 6 6 7 6 6 7 8 9 8 8 7 7 7 7 6 5 5 5 4 3 2 2 3 2 3 2 3 3 2 1
15 9 9 12 13 13 13 13 12 11 10 9 9 10 9 9 9 6 5 6 7 8 8 9 8 8 7 7 6 5 4 4 3 3 2 2 2 2 2 3 3 2 2 2
14 11 10 11 12 12 12 11 12 13 12 10 10 10 9 9 9 8 8 7 8 8 7 8 8 7 7 7 7 5 5 4 3 3 3 3 3 3 3 2 3 3 3 3
12 11 11 12 11 11 13 12 12 13 13 14 12 12 8 9 9 10 10 8 8 9 8 8 8 7 7 7 7 7 6 5 4 2 2 3 2 2 2 2 3 3 2 3
13 11 10 11 11 11 11 13 14 13 11 14 14 13 9 6 9 10 10 9 8 9 8 7 7 7 6 6 6 7 6 5 4 3 2 3 3 2 3 3 3 3 3 2
13 14 11 9 11 10 10 10 9 10 11 12 11 11 6 5 6 6 9 8 7 6 7 7 7 6 5 6 6 7 7 5 4 4 3 2 2 3 3 3 3 3 3 2
12 11 11 10 10 10 10 11 10 10 11 9 8 8 4 3 3 4 6 7 6 6 6 6 6 5 4 5 6 6 7 6 5 4 3 2 2 2 2 3 2 3 2 3
9 7 6 8 9 11 12 11 12 13 16 15 9 5 3 4 4 4 5 6 5 3 5 5 5 4 4 4 4 5 6 6 5 4 4 3 3 2 2 2 2 1 2 3
10 12 10 6 8 11 12 12 9 10 11 13 11 8 2 3 2 3 4 4 5 3 3 5 5 4 4 4 4 4 6 6 5 5 4 3 3 2 2 2 2 2 2 2
8 10 11 10 9 10 11 11 11 9 10 12 12 5 3 4 3 1 2 4 5 3 3 4 4 4 3 4 4 4 5 5 4 4 3 3 3 3 3 2 2 2 2 3
6 7 10 12 11 10 11 11 10 9 10 11 11 4 5 4 3 4 4 4 3 3 4 4 4 4 4 3 3 3 4 4 3 3 3 2 2 3 3 2 2 3 3 3
6 5 9 10 8 7 9 9 10 9 9 10 11 5 1 3 4 4 4 4 4 3 4 4 4 3 3 3 2 2 2 2 3 2 2 2 2 2 2 2 2 2 3 3
4 6 10 12 10 9 10 12 11 10 9 10 11 7 2 3 3 3 2 3 3 3 3 3 3 2 2 2 2 1 1 1 2 1 2 2 1 2 2 2 2 2 2 3
4 8 11 14 14 13 13 13 12 12 12 12 9 6 2 2 3 4 4 4 3 2 2 2 2 1 1 1 2 1 1 1 2 1 2 2 1 1 1 2 2 2 3 4
3 7 11 13 14 13 13 12 11 11 11 10 7 5 3 3 3 4 4 3 3 2 1 1 1 1 0 0 0 1 2 2 2 2 2 2 2 2 2 2 3 3 3 3
5 7 10 12 12 12 11 9 9 8 6 6 6 5 5 5 5 5 4 4 3 2 1 1 0 0 0 1 1 2 2 2 2 2 2 2 2 2 2 3 3 3 3 3
6 6 6 10 10 11 5 4 5 5 4 6 5 4 4 4 5 6 6 5 4 3 3 2 1 1 1 1 2 2 2 2 2 2 2 2 2 2 3 3 2 2 2 3
5 6 6 7 8 8 5 4 5 4 4 7 6 6 6 6 5 5 6 6 5 4 3 2 2 2 0 1 1 1 1 2 2 2 2 2 2 2 3 3 3 2 2 3
6 6 6 8 8 7 3 5 5 4 2 6 6 6 6 6 4 3 5 5 5 5 3 3 2 2 1 1 0 1 2 2 2 2 2 2 3 3 3 3 3 3 3 4
5 6 8 8 8 3 5 6 5 3 3 6 6 6 6 6 5 4 5 4 4 3 2 3 2 2 2 1 1 2 2 2 2 2 2 3 3 3 3 3 3 3 3 3
4 4 4 5 6 1 6 5 4 4 4 6 7 6 5 4 4 5 5 5 4 4 3 2 2 2 2 2 1 2 2 2 2 2 2 2 3 4 3 2 3 3 3 3
3 2 2 1 1 2 4 3 3 3 4 4 5 6 5 5 5 5 5 4 4 4 3 3 2 2 1 1 2 2 2 1 1 1 1 2 3 3 2 3 3 3 3 3
2 2 2 2 1 1 3 3 3 3 4 4 4 5 5 5 6 5 5 4 4 4 3 3 3 3 3 2 2 2 2 1 1 1 1 2 2 2 2 2 3 3 3 3
6 4 3 2 2 3 4 5 4 5 4 4 4 4 5 5 5 5 5 5 4 4 3 3 3 3 3 3 2 2 2 1 2 2 2 2 3 3 2 2 2 3 2 2
4 4 4 3 3 3 4 4 4 4 5 5 5 5 5 5 5 5 4 4 4 4 3 3 4 4 3 2 2 2 2 2 1 2 2 2 2 2 3 3 2 1 1 1
Wind_Direction
218 232 236 234 231 252 265 274 276 269 242 238 241 243 224 219 216 208 184 167 164 160 156 144 136 128 128 125 126 142 147 143 147 150 162 163 154 145 132 126 113 119 122 114
228 229 240 249 246 242 255 265 271 277 264 254 254 252 234 230 232 217 193 168 165 158 154 146 145 141 137 139 141 143 144 153 159 150 163 160 149 150 136 121 121 133 130 124
237 238 234 243 249 251 253 258 266 273 273 256 261 253 234 224 231 208 189 181 163 159 154 149 155 154 152 147 147 145 147 151 157 151 158 159 148 157 140 135 132 150 145 149
242 238 245 246 248 257 263 262 270 274 274 268 252 258 230 214 209 197 190 183 165 154 157 158 158 157 156 150 148 139 137 145 155 163 171 173 173 170 153 150 148 160 163 161
249 241 246 252 253 256 267 279 275 274 275 276 265 262 244 202 209 192 186 182 170 157 163 163 165 159 154 150 149 144 140 138 146 164 172 181 171 156 145 142 148 157 169 174
258 254 248 254 260 260 270 275 269 262 261 259 257 260 252 216 216 197 181 175 165 162 161 152 158 146 148 155 150 145 141 143 149 157 158 175 176 165 159 170 164 174 170 171
243 243 244 247 258 253 255 265 266 253 240 251 248 249 245 199 215 182 159 156 157 154 149 149 151 155 156 158 154 147 146 149 157 163 155 154 183 185 183 187 187 186 170 163
249 238 228 229 245 258 252 254 262 272 274 276 256 242 235 144 134 135 136 135 143 151 143 139 137 139 151 150 147 143 147 151 158 160 156 163 180 202 198 199 209 194 173 164
285 278 242 235 242 252 255 251 257 267 277 282 272 252 177 137 147 133 127 128 129 134 131 130 124 127 134 139 140 144 147 152 160 167 169 181 187 208 204 197 219 189 177 173
292 296 286 261 241 240 254 267 268 264 275 279 276 273 251 160 159 144 135 123 113 88 100 120 125 126 124 130 141 143 151 158 165 170 184 189 192 197 192 209 209 203 196 173
285 286 285 276 259 263 258 257 267 275 274 276 277 280 65 111 95 75 73 81 94 113 104 93 90 100 116 123 130 130 140 146 155 171 182 184 195 195 201 215 191 193 195 202
287 283 284 280 276 270 273 269 263 267 273 277 279 282 45 61 78 71 63 65 64 100 89 86 88 87 88 89 101 126 135 152 163 163 159 178 193 192 197 204 197 198 200 213
325 289 277 270 260 261 267 271 273 272 273 272 273 264 7 43 46 42 32 35 36 66 80 81 80 79 80 79 77 103 133 148 148 160 176 175 191 198 199 192 202 213 207 214
285 274 276 280 296 310 287 279 273 267 264 265 267 272 277 355 9 5 33 23 18 62 81 83 83 77 76 93 83 45 137 130 133 153 177 177 200 219 211 203 206 212 211 211
274 269 274 280 287 288 287 286 285 275 273 274 284 295 312 340 346 6 19 18 1 40 84 98 99 97 73 78 100 115 215 183 159 168 200 194 203 216 224 226 228 231 229 219
259 278 286 284 281 282 281 277 277 276 276 279 287 301 340 30 29 24 15 8 344 16 8 84 104 106 143 107 162 237 223 201 172 187 218 205 198 212 222 223 230 231 234 226
266 272 280 280 282 281 279 293 288 285 302 310 304 326 8 9 13 16 13 5 340 332 311 315 21 41 274 211 210 236 240 203 197 207 223 207 204 212 215 224 223 225 235 225
256 274 277 279 282 271 286 326 319 321 342 6 356 6 28 8 5 23 9 359 345 340 338 340 340 313 290 258 231 225 228 216 213 208 222 230 221 220 219 219 222 226 226 224
224 248 269 273 274 271 286 331 347 332 336 16 6 2 3 6 351 23 14 7 4 2 344 329 322 302 276 256 249 230 240 238 241 229 234 247 236 233 233 220 214 218 222 227
215 221 252 270 278 282 335 357 343 312 303 16 14 1 349 342 328 10 17 15 7 360 346 349 353 343 337 338 291 229 239 236 254 259 255 265 256 240 237 232 221 219 219 225
227 232 243 262 268 279 11 352 336 306 6 6 6 354 350 352 340 348 0 16 9 348 343 347 350 341 342 350 333 277 277 256 253 253 252 258 258 248 237 226 227 227 225 225
273 276 272 277 277 322 16 4 15 19 0 359 5 5 4 354 352 356 359 1 357 346 345 350 340 342 357 343 309 284 280 273 257 254 262 270 264 253 238 227 234 230 223 228
282 307 312 324 323 28 22 41 32 4 357 358 355 353 349 347 349 351 354 351 343 333 338 343 335 339 342 325 307 291 297 307 283 270 260 264 265 254 235 231 237 234 227 231
322 342 284 267 192 329 350 12 14 6 354 352 350 345 347 344 343 347 349 347 344 342 345 346 337 331 334 335 316 311 319 342 315 270 249 248 248 246 238 248 246 244 242 238
324 321 306 301 323 337 2 0 0 356 346 345 347 348 348 343 342 346 349 350 352 347 341 337 331 325 328 331 323 319 325 331 316 293 267 258 246 238 224 247 257 244 254 246
324 315 297 308 341 327 330 340 345 341 335 335 337 339 343 344 347 351 354 354 349 343 341 336 325 326 331 326 314 315 323 322 304 292 291 284 267 246 230 224 238 10 224 173